GSAT-19 (42747 NORAD) Tracking and Keplerian Element Data

This shows tracking and keplerian element data for the satellite.

Feedback or suggestion? Click here.




ElementValue
Catalog42747
NameGSAT-19
Epoch Orbit533
Epoch Day318.10583037
Epoch Year2018
RAAN100.2324
Inclination0.0668
Eccentricity0.0001236
Argument of Perigee82.4542
Mean Anonmoly316.5095
Mean Motion1.00273647
Decay Rate1.25E-06
L11 42747U 17031A 18318.10583037 .00000125 00000-0 00000+0 0 9991
L22 42747 0.0668 100.2324 0001236 82.4542 316.5095 1.00273647 5335

Live tracking and technical data element details for GSAT-19 (NORAD 42747). GSAT-19 can be tracked NOW for your location showing map with azimuth and elevation plus other details from your city location.

Track the satellite on the map from your city or location and see movement details for azimuth, elevation, latitude, longitude, range, height, and movement on the map or in text.







IsCatalogInMostPopularTable: catalog: 42747, numindb: 139
Update: records affected: 1



GetName: 42747 GSAT-19

Hit Count: updated at: Wed, 14 Nov 2018 10:49:13 GMT